STARLINK-30601, 58117

Orbit data source: Space-Track

STARLINK-30601, 58117 is a payload satellite owned by SpaceX/Seattle (US) in LEO that was launched on Sat, 21 Oct 2023 UTC via an FALCON 9 launch vehicle from the Air Force Western Test Range (AFWTR). Payload-class satellites include a variety of spacecraft equipped with specific instruments for various scientific and technological missions. These include communications satellites like Starlink; space stations such as the ISS; scientific satellites like the Hubble; Earth observation satellites from companies like Planet Labs, Umbra, and HawkEye 360; GPS; miniature CubeSats for education and research; and military/defense satellites.

Loading next visibility...
Identifier
58117, 2023-161W
Orbit
LEO
Country
Flag of USUS
Related business
Manufacturer
SpaceX/Seattle
Mission
Operational Commercial Communications
Bus & Motor
STARLINK V2M, Unknown motor
Mass
730 kg wet, ~700 kg dry
Launch date (UTC)
2023-10-21 (3 years ago)
Launch vehicle
FALCON 9
Launch site
Air Force Western Test Range (AFWTR)
Object type
Payload
Rocket body
Debris
Shape & HBR
Box + 2 Pan, 17.7 m
Radar Cross Section
33.884 m², Large (>1 m²)

Expand to show TLE details & history
Last TLE update: 3 days ago

TLE from 3 days ago
0 STARLINK-30601
1 58117U 23161W   26170.94286410 -.00002043  00000-0 -56878-4 0  9994
2 58117  53.1605  50.8157 0000907 100.0208 260.0896 15.30191190150071
Epoch: 2026-06-19T22:37Z
TLE epoch observation values (Epoch: 2026-06-19T22:37:43.458Z)
Latitude
0.00006°
Longitude
163.22007°
Altitude
476.248 km
Speed
7.629 km/s
True Right ascension
03h 23m 15s
True Declination
0° 00' 00"
Sunlit
Object was in daylight at epoch
Visualization orbit readout
Latitude
Unknown
Longitude
Unknown
Altitude
Unknown
Speed
Unknown
Apparent Right ascension
Unknown
Apparent Declination
Unknown
Sunlit
N/A
Visualization observer readout
Local Sidereal Time
00:31:33
Azimuth
Unknown
Elevation
Unknown
Doppler factor
Unknown
Orbital elements
Apogee altitude
476.119 km
Perigee altitude
474.876 km
Semi-major axis
6,853.635 km
Eccentricity
0.00009
Inclination
53.1605°
RAAN
50.8157°
Arg. of periapsis
100.0208°
True anomaly
260.07936°
Mean anomaly
260.0896°
Eccentric anomaly
260.08448°
Mean motion
3.82527 °/min
Orbital period
94.11 mins
BSTAR
-0.000056878
Loading maneuver chart data...
Computing Atmospheric mass density...
Loading historical data...
Loading historical data...
Loading historical data...
Loading historical data...
Loading historical data...
Loading historical data...
Loading historical data...

Documentation

Showing up to 5 results
|